Regional Weather Roundup
Issued by NWS Charleston, WV

Home | Current Version | Previous Version | Graphics & Text | Print | Product List | Glossary On
Versions: 1 2 3 4 5 6 7 8 9 10 11 12 13 14 15 16 17 18 19 20 21 22 23 24 25 26 27 28 29 30 31 32 33 34 35 36 37 38 39 40 41 42 43 44 45 46 47 48 49 50
558
ASUS41 KRLX 081910
RWRRLX
West Virginia Regional Weather Roundup
National Weather Service Charleston WV
200 PM EST THU DEC 08 2016

Note: "fair" indicates few or no clouds below 12,000 feet with no
significant weather and/or obstructions to visibility.

WVZ003-082000-
Northern Panhandle of West Virginia

CITY           SKY/WX    TMP DP  RH WIND       PRES   REMARKS
WHEELING       CLOUDY    26  15  63 W20G28    30.13R
$$

WVZ009-082000-
Northwest West Virginia

CITY           SKY/WX    TMP DP  RH WIND       PRES   REMARKS
PARKERSBURG    MOSUNNY   34  16  47 W14G26    30.21S
$$

WVZ006-082000-
Western West Virginia

CITY           SKY/WX    TMP DP  RH WIND       PRES   REMARKS
HUNTINGTON     MOSUNNY   37  16  42 W13       30.22F
$$

WVZ015-082000-
West Central West Virginia

CITY           SKY/WX    TMP DP  RH WIND       PRES   REMARKS
CHARLESTON     MOSUNNY   38  16  40 W9G26     30.18S
$$

WVZ022-031-082000-
North Central West Virginia

CITY           SKY/WX    TMP DP  RH WIND       PRES   REMARKS
CLARKSBURG     SUNNY     34  17  50 W15G28    30.10S
MORGANTOWN     PTSUNNY   35  16  45 W13G22    30.09R
$$

WVZ025-035-042-045-082000-
Southern West Virginia

CITY           SKY/WX    TMP DP  RH WIND       PRES   REMARKS
BECKLEY        SUNNY     34  15  46 W22       30.09S
LOGAN            N/A     36  12  38 NW10G22   30.16S
BLUEFIELD      SUNNY     33  12  41 NW9G25    30.07F
LEWISBURG      MOSUNNY   35  11  37 W18G28    30.07R
$$

WVZ047-082000-
Northern Mountains of West Virginia

CITY           SKY/WX    TMP DP  RH WIND       PRES   REMARKS
ELKINS         SUNNY     34  12  40 W22G31    30.06R
$$

WVZ052-082000-
Eastern Panhandle of West Virginia

CITY           SKY/WX    TMP DP  RH WIND       PRES   REMARKS
MARTINSBURG    MOSUNNY   45  17  32 W14G23    29.99S
PETERSBURG     MOSUNNY   43  19  38 W15G24    30.05R
$$




USA.gov is the U.S. government's official web portal to all federal, state and local government web resources and services.